Time,TemperatureF,DewpointF,PressureIn,WindDirection,WindDirectionDegrees,WindSpeedMPH,WindSpeedGustMPH,Humidity,HourlyPrecipIn,Conditions,Clouds,dailyrainin,SoftwareType,DateUTC
2013-02-04 00:02:00,59.0,-99.9,30.11,WNW,289,13.0,14.0,-999,-99.99,,,-99.99,,2013-02-04 06:02:00,
2013-02-04 00:11:00,59.0,-99.9,30.11,WNW,298,13.0,15.0,-999,-99.99,,,-99.99,,2013-02-04 06:11:00,
2013-02-04 00:22:00,58.0,-99.9,30.11,WNW,301,13.0,14.0,-999,-99.99,,,-99.99,,2013-02-04 06:22:00,
2013-02-04 00:32:00,58.0,-99.9,30.11,NW,305,13.0,15.0,-999,-99.99,,,-99.99,,2013-02-04 06:32:00,
2013-02-04 00:42:00,58.0,-99.9,30.11,NW,324,14.0,16.0,-999,-99.99,,,-99.99,,2013-02-04 06:42:00,
2013-02-04 00:52:00,56.0,-99.9,30.11,NNW,344,14.0,16.0,-999,-99.99,,,-99.99,,2013-02-04 06:52:00,
2013-02-04 01:02:00,56.0,-99.9,30.11,NNW,342,13.0,16.0,-999,-99.99,,,-99.99,,2013-02-04 07:02:00,
2013-02-04 01:11:00,57.0,-99.9,30.10,North,354,15.0,17.0,-999,-99.99,,,-99.99,,2013-02-04 07:11:00,
2013-02-04 01:22:00,56.0,-99.9,30.10,North,357,13.0,16.0,-999,-99.99,,,-99.99,,2013-02-04 07:22:00,
2013-02-04 01:32:00,55.0,-99.9,30.10,North,9,10.0,13.0,-999,-99.99,,,-99.99,,2013-02-04 07:32:00,
2013-02-04 01:42:00,54.0,-99.9,30.10,North,8,10.0,12.0,-999,-99.99,,,-99.99,,2013-02-04 07:42:00,
2013-02-04 01:52:00,54.0,-99.9,30.10,NNE,14,11.0,12.0,-999,-99.99,,,-99.99,,2013-02-04 07:52:00,
2013-02-04 02:01:00,54.0,-99.9,30.10,NNE,15,10.0,12.0,-999,-99.99,,,-99.99,,2013-02-04 08:01:00,
2013-02-04 02:11:00,55.0,-99.9,30.10,NNE,23,10.0,11.0,-999,-99.99,,,-99.99,,2013-02-04 08:11:00,
2013-02-04 02:21:00,55.0,-99.9,30.09,NNE,29,11.0,13.0,-999,-99.99,,,-99.99,,2013-02-04 08:21:00,
2013-02-04 02:32:00,55.0,-99.9,30.09,NE,35,12.0,13.0,-999,-99.99,,,-99.99,,2013-02-04 08:32:00,
2013-02-04 02:42:00,55.0,-99.9,30.09,NE,35,13.0,14.0,-999,-99.99,,,-99.99,,2013-02-04 08:42:00,
2013-02-04 02:52:00,55.0,-99.9,30.09,NE,43,13.0,14.0,-999,-99.99,,,-99.99,,2013-02-04 08:52:00,
2013-02-04 03:02:00,55.0,-99.9,30.09,NE,46,14.0,16.0,-999,-99.99,,,-99.99,,2013-02-04 09:02:00,
2013-02-04 03:11:00,55.0,-99.9,30.08,NE,50,13.0,15.0,-999,-99.99,,,-99.99,,2013-02-04 09:11:00,
2013-02-04 03:22:00,55.0,-99.9,30.08,NE,52,13.0,14.0,-999,-99.99,,,-99.99,,2013-02-04 09:22:00,
2013-02-04 03:32:00,54.0,-99.9,30.08,North,-999,-999.0,-999.0,-999,-99.99,,,-99.99,,2013-02-04 09:32:00,
2013-02-04 03:42:00,54.0,-99.9,30.08,North,-999,-999.0,-999.0,-999,-99.99,,,-99.99,,2013-02-04 09:42:00,
2013-02-04 03:52:00,54.0,-99.9,30.07,NE,55,14.0,16.0,-999,-99.99,,,-99.99,,2013-02-04 09:52:00,
2013-02-04 04:02:00,54.0,-99.9,30.07,North,-999,-999.0,-999.0,-999,-99.99,,,-99.99,,2013-02-04 10:02:00,
2013-02-04 04:12:00,54.0,-99.9,30.07,North,-999,-999.0,-999.0,-999,-99.99,,,-99.99,,2013-02-04 10:12:00,
2013-02-04 04:22:00,54.0,-99.9,30.07,ENE,63,12.0,14.0,-999,-99.99,,,-99.99,,2013-02-04 10:22:00,
2013-02-04 04:32:00,54.0,-99.9,30.08,ENE,64,12.0,14.0,-999,-99.99,,,-99.99,,2013-02-04 10:32:00,
2013-02-04 04:42:00,54.0,-99.9,30.08,North,-999,-999.0,-999.0,-999,-99.99,,,-99.99,,2013-02-04 10:42:00,
2013-02-04 04:52:00,54.0,-99.9,30.08,ENE,61,12.0,14.0,-999,-99.99,,,-99.99,,2013-02-04 10:52:00,
2013-02-04 05:02:00,53.0,-99.9,30.07,ENE,60,12.0,14.0,-999,-99.99,,,-99.99,,2013-02-04 11:02:00,
2013-02-04 05:11:00,53.0,-99.9,30.07,North,-999,-999.0,-999.0,-999,-99.99,,,-99.99,,2013-02-04 11:11:00,
2013-02-04 05:22:00,53.0,-99.9,30.07,ENE,61,12.0,14.0,-999,-99.99,,,-99.99,,2013-02-04 11:22:00,
2013-02-04 05:33:00,53.0,-99.9,30.07,ENE,69,11.0,13.0,-999,-99.99,,,-99.99,,2013-02-04 11:33:00,
2013-02-04 05:42:00,53.0,-99.9,30.07,ENE,71,12.0,15.0,-999,-99.99,,,-99.99,,2013-02-04 11:42:00,
2013-02-04 05:52:00,53.0,-99.9,30.07,ENE,77,13.0,16.0,-999,-99.99,,,-99.99,,2013-02-04 11:52:00,
2013-02-04 06:03:00,53.0,-99.9,30.07,ENE,77,13.0,17.0,-999,-99.99,,,-99.99,,2013-02-04 12:03:00,
2013-02-04 06:12:00,52.0,-99.9,30.07,North,-999,-999.0,-999.0,-999,-99.99,,,-99.99,,2013-02-04 12:12:00,
2013-02-04 06:22:00,53.0,-99.9,30.08,East,81,11.0,14.0,-999,-99.99,,,-99.99,,2013-02-04 12:22:00,
2013-02-04 06:33:00,52.0,-99.9,30.07,East,94,12.0,15.0,-999,-99.99,,,-99.99,,2013-02-04 12:33:00,
2013-02-04 06:42:00,52.0,-99.9,30.07,East,93,10.0,13.0,-999,-99.99,,,-99.99,,2013-02-04 12:42:00,
2013-02-04 06:53:00,52.0,-99.9,30.07,East,92,11.0,14.0,-999,-99.99,,,-99.99,,2013-02-04 12:53:00,
2013-02-04 07:03:00,52.0,-99.9,30.08,East,90,11.0,14.0,-999,-99.99,,,-99.99,,2013-02-04 13:03:00,
2013-02-04 07:12:00,52.0,-99.9,30.08,East,89,10.0,12.0,-999,-99.99,,,-99.99,,2013-02-04 13:12:00,
2013-02-04 07:22:00,52.0,-99.9,30.09,ENE,78,9.0,11.0,-999,-99.99,,,-99.99,,2013-02-04 13:22:00,
2013-02-04 07:33:00,52.0,-99.9,30.09,ENE,78,9.0,11.0,-999,-99.99,,,-99.99,,2013-02-04 13:33:00,
2013-02-04 07:42:00,52.0,-99.9,30.09,ENE,77,10.0,12.0,-999,-99.99,,,-99.99,,2013-02-04 13:42:00,
2013-02-04 07:52:00,52.0,-99.9,30.08,East,80,9.0,11.0,-999,-99.99,,,-99.99,,2013-02-04 13:52:00,
2013-02-04 08:03:00,52.0,-99.9,30.08,East,81,10.0,13.0,-999,-99.99,,,-99.99,,2013-02-04 14:03:00,
2013-02-04 08:12:00,52.0,-99.9,30.08,North,-999,-999.0,-999.0,-999,-99.99,,,-99.99,,2013-02-04 14:12:00,
2013-02-04 08:23:00,52.0,-99.9,30.09,ENE,78,11.0,13.0,-999,-99.99,,,-99.99,,2013-02-04 14:23:00,
2013-02-04 08:33:00,52.0,-99.9,30.08,North,-999,-999.0,-999.0,-999,-99.99,,,-99.99,,2013-02-04 14:33:00,
2013-02-04 08:42:00,52.0,-99.9,30.08,East,83,9.0,11.0,-999,-99.99,,,-99.99,,2013-02-04 14:42:00,
2013-02-04 08:53:00,52.0,-99.9,30.09,North,-999,-999.0,-999.0,-999,-99.99,,,-99.99,,2013-02-04 14:53:00,
2013-02-04 09:04:00,52.0,-99.9,30.09,North,-999,-999.0,-999.0,-999,-99.99,,,-99.99,,2013-02-04 15:04:00,
2013-02-04 09:13:00,53.0,-99.9,30.10,ENE,75,7.0,8.0,-999,-99.99,,,-99.99,,2013-02-04 15:13:00,
2013-02-04 09:24:00,53.0,-99.9,30.10,ENE,59,9.0,10.0,-999,-99.99,,,-99.99,,2013-02-04 15:24:00,
2013-02-04 09:33:00,53.0,-99.9,30.10,ENE,61,9.0,10.0,-999,-99.99,,,-99.99,,2013-02-04 15:33:00,
2013-02-04 09:43:00,53.0,-99.9,30.10,ENE,64,10.0,10.0,-999,-99.99,,,-99.99,,2013-02-04 15:43:00,
2013-02-04 09:53:00,53.0,-99.9,30.10,East,80,7.0,9.0,-999,-99.99,,,-99.99,,2013-02-04 15:53:00,
2013-02-04 10:03:00,54.0,-99.9,30.10,East,83,6.0,8.0,-999,-99.99,,,-99.99,,2013-02-04 16:03:00,
2013-02-04 10:11:00,54.0,-99.9,30.11,ENE,61,4.0,5.0,-999,-99.99,,,-99.99,,2013-02-04 16:11:00,
2013-02-04 10:23:00,54.0,-99.9,30.11,ENE,71,4.0,5.0,-999,-99.99,,,-99.99,,2013-02-04 16:23:00,
2013-02-04 10:33:00,54.0,-99.9,30.10,ENE,71,4.0,5.0,-999,-99.99,,,-99.99,,2013-02-04 16:33:00,
2013-02-04 10:43:00,55.0,-99.9,30.11,NE,51,5.0,7.0,-999,-99.99,,,-99.99,,2013-02-04 16:43:00,
2013-02-04 10:52:00,56.0,-99.9,30.11,NE,56,4.0,7.0,-999,-99.99,,,-99.99,,2013-02-04 16:52:00,
2013-02-04 11:03:00,56.0,-99.9,30.11,NE,56,4.0,7.0,-999,-99.99,,,-99.99,,2013-02-04 17:03:00,
2013-02-04 11:12:00,56.0,-99.9,30.11,ENE,63,4.0,6.0,-999,-99.99,,,-99.99,,2013-02-04 17:12:00,
2013-02-04 11:21:00,57.0,-99.9,30.11,North,-999,-999.0,-999.0,-999,-99.99,,,-99.99,,2013-02-04 17:21:00,
2013-02-04 11:32:00,57.0,-99.9,30.10,North,-999,-999.0,-999.0,-999,-99.99,,,-99.99,,2013-02-04 17:32:00,
2013-02-04 11:42:00,56.0,-99.9,30.10,ENE,69,6.0,7.0,-999,-99.99,,,-99.99,,2013-02-04 17:42:00,
2013-02-04 11:52:00,56.0,-99.9,30.09,ENE,71,6.0,7.0,-999,-99.99,,,-99.99,,2013-02-04 17:52:00,
2013-02-04 12:03:00,57.0,-99.9,30.09,ENE,74,4.0,6.0,-999,-99.99,,,-99.99,,2013-02-04 18:03:00,
2013-02-04 12:12:00,57.0,-99.9,30.08,ENE,75,5.0,7.0,-999,-99.99,,,-99.99,,2013-02-04 18:12:00,
2013-02-04 12:22:00,58.0,-99.9,30.08,East,85,5.0,6.0,-999,-99.99,,,-99.99,,2013-02-04 18:22:00,
2013-02-04 12:33:00,58.0,-99.9,30.07,ENE,69,5.0,6.0,-999,-99.99,,,-99.99,,2013-02-04 18:33:00,
2013-02-04 12:42:00,58.0,-99.9,30.07,ENE,66,5.0,7.0,-999,-99.99,,,-99.99,,2013-02-04 18:42:00,
2013-02-04 12:52:00,58.0,-99.9,30.06,East,89,6.0,8.0,-999,-99.99,,,-99.99,,2013-02-04 18:52:00,
2013-02-04 13:02:00,59.0,-99.9,30.06,East,87,5.0,7.0,-999,-99.99,,,-99.99,,2013-02-04 19:02:00,
2013-02-04 13:12:00,60.0,-99.9,30.06,ESE,122,7.0,8.0,-999,-99.99,,,-99.99,,2013-02-04 19:12:00,
2013-02-04 13:23:00,60.0,-99.9,30.05,SE,128,6.0,8.0,-999,-99.99,,,-99.99,,2013-02-04 19:23:00,
2013-02-04 13:32:00,61.0,-99.9,30.05,North,-999,-999.0,-999.0,-999,-99.99,,,-99.99,,2013-02-04 19:32:00,
2013-02-04 13:42:00,61.0,-99.9,30.04,North,-999,-999.0,-999.0,-999,-99.99,,,-99.99,,2013-02-04 19:42:00,
2013-02-04 13:52:00,60.0,-99.9,30.03,SE,127,7.0,9.0,-999,-99.99,,,-99.99,,2013-02-04 19:52:00,
2013-02-04 14:02:00,60.0,-99.9,30.03,ESE,121,8.0,9.0,-999,-99.99,,,-99.99,,2013-02-04 20:02:00,
2013-02-04 14:12:00,61.0,-99.9,30.03,SE,132,7.0,9.0,-999,-99.99,,,-99.99,,2013-02-04 20:12:00,
2013-02-04 14:22:00,60.0,-99.9,30.03,SE,127,8.0,9.0,-999,-99.99,,,-99.99,,2013-02-04 20:22:00,
2013-02-04 14:32:00,61.0,-99.9,30.03,SE,135,6.0,7.0,-999,-99.99,,,-99.99,,2013-02-04 20:32:00,
2013-02-04 14:42:00,61.0,-99.9,30.03,SE,132,8.0,10.0,-999,-99.99,,,-99.99,,2013-02-04 20:42:00,
2013-02-04 14:52:00,61.0,-99.9,30.02,SE,128,8.0,9.0,-999,-99.99,,,-99.99,,2013-02-04 20:52:00,
2013-02-04 15:03:00,61.0,-99.9,30.03,ESE,123,7.0,8.0,-999,-99.99,,,-99.99,,2013-02-04 21:03:00,
2013-02-04 15:12:00,61.0,-99.9,30.03,SE,132,6.0,9.0,-999,-99.99,,,-99.99,,2013-02-04 21:12:00,
2013-02-04 15:23:00,61.0,-99.9,30.02,SE,129,8.0,11.0,-999,-99.99,,,-99.99,,2013-02-04 21:23:00,
2013-02-04 15:32:00,61.0,-99.9,30.02,SE,124,8.0,9.0,-999,-99.99,,,-99.99,,2013-02-04 21:32:00,
2013-02-04 15:43:00,61.0,-99.9,30.02,ESE,108,7.0,8.0,-999,-99.99,,,-99.99,,2013-02-04 21:43:00,
2013-02-04 15:52:00,61.0,-99.9,30.02,ENE,75,4.0,6.0,-999,-99.99,,,-99.99,,2013-02-04 21:52:00,
2013-02-04 16:03:00,61.0,-99.9,30.01,ENE,72,5.0,6.0,-999,-99.99,,,-99.99,,2013-02-04 22:03:00,
2013-02-04 16:12:00,61.0,-99.9,30.01,ESE,114,9.0,10.0,-999,-99.99,,,-99.99,,2013-02-04 22:12:00,
2013-02-04 16:22:00,61.0,-99.9,30.01,ESE,123,9.0,10.0,-999,-99.99,,,-99.99,,2013-02-04 22:22:00,
2013-02-04 16:33:00,61.0,-99.9,30.01,ESE,114,10.0,11.0,-999,-99.99,,,-99.99,,2013-02-04 22:33:00,
2013-02-04 16:42:00,61.0,-99.9,30.01,ESE,106,9.0,11.0,-999,-99.99,,,-99.99,,2013-02-04 22:42:00,
2013-02-04 16:52:00,61.0,-99.9,30.01,ESE,112,10.0,11.0,-999,-99.99,,,-99.99,,2013-02-04 22:52:00,
2013-02-04 17:02:00,61.0,-99.9,30.00,ESE,111,11.0,13.0,-999,-99.99,,,-99.99,,2013-02-04 23:02:00,
2013-02-04 17:11:00,61.0,-99.9,29.99,ESE,109,11.0,14.0,-999,-99.99,,,-99.99,,2013-02-04 23:11:00,
2013-02-04 17:22:00,61.0,-99.9,30.00,ESE,113,13.0,14.0,-999,-99.99,,,-99.99,,2013-02-04 23:22:00,
2013-02-04 17:32:00,61.0,-99.9,30.00,ESE,114,11.0,14.0,-999,-99.99,,,-99.99,,2013-02-04 23:32:00,
2013-02-04 17:42:00,61.0,-99.9,29.99,ESE,116,14.0,16.0,-999,-99.99,,,-99.99,,2013-02-04 23:42:00,
2013-02-04 17:53:00,61.0,-99.9,30.00,ESE,113,14.0,15.0,-999,-99.99,,,-99.99,,2013-02-04 23:53:00,
2013-02-04 18:02:00,61.0,-99.9,30.00,ESE,107,12.0,14.0,-999,-99.99,,,-99.99,,2013-02-05 00:02:00,
2013-02-04 18:12:00,61.0,-99.9,30.00,ESE,110,13.0,14.0,-999,-99.99,,,-99.99,,2013-02-05 00:12:00,
2013-02-04 18:22:00,61.0,-99.9,30.01,ESE,112,12.0,13.0,-999,-99.99,,,-99.99,,2013-02-05 00:22:00,
2013-02-04 18:32:00,61.0,-99.9,30.01,ESE,113,13.0,14.0,-999,-99.99,,,-99.99,,2013-02-05 00:32:00,
2013-02-04 18:42:00,61.0,-99.9,30.01,ESE,118,13.0,15.0,-999,-99.99,,,-99.99,,2013-02-05 00:42:00,
2013-02-04 18:52:00,61.0,-99.9,30.00,ESE,119,13.0,14.0,-999,-99.99,,,-99.99,,2013-02-05 00:52:00,
2013-02-04 19:02:00,61.0,-99.9,30.00,ESE,122,15.0,17.0,-999,-99.99,,,-99.99,,2013-02-05 01:02:00,
2013-02-04 19:12:00,61.0,-99.9,30.00,ESE,121,14.0,16.0,-999,-99.99,,,-99.99,,2013-02-05 01:12:00,
2013-02-04 19:22:00,61.0,-99.9,30.01,ESE,120,15.0,16.0,-999,-99.99,,,-99.99,,2013-02-05 01:22:00,
2013-02-04 19:33:00,61.0,-99.9,30.00,ESE,118,15.0,16.0,-999,-99.99,,,-99.99,,2013-02-05 01:33:00,
2013-02-04 19:42:00,61.0,-99.9,30.01,ESE,121,14.0,16.0,-999,-99.99,,,-99.99,,2013-02-05 01:42:00,
2013-02-04 19:52:00,61.0,-99.9,30.00,ESE,123,15.0,17.0,-999,-99.99,,,-99.99,,2013-02-05 01:52:00,
2013-02-04 20:02:00,61.0,-99.9,30.00,SE,125,16.0,18.0,-999,-99.99,,,-99.99,,2013-02-05 02:02:00,
2013-02-04 20:11:00,61.0,-99.9,29.99,SE,128,17.0,19.0,-999,-99.99,,,-99.99,,2013-02-05 02:11:00,
2013-02-04 20:22:00,61.0,-99.9,30.00,SE,125,14.0,16.0,-999,-99.99,,,-99.99,,2013-02-05 02:22:00,
2013-02-04 20:32:00,61.0,-99.9,30.00,SE,126,15.0,17.0,-999,-99.99,,,-99.99,,2013-02-05 02:32:00,
2013-02-04 20:42:00,61.0,-99.9,30.00,SE,125,15.0,17.0,-999,-99.99,,,-99.99,,2013-02-05 02:42:00,
2013-02-04 20:52:00,61.0,-99.9,30.00,SE,126,14.0,15.0,-999,-99.99,,,-99.99,,2013-02-05 02:52:00,
2013-02-04 21:02:00,61.0,-99.9,30.00,SE,126,14.0,15.0,-999,-99.99,,,-99.99,,2013-02-05 03:02:00,
2013-02-04 21:11:00,61.0,-99.9,30.00,SE,126,14.0,15.0,-999,-99.99,,,-99.99,,2013-02-05 03:11:00,
2013-02-04 21:22:00,61.0,-99.9,30.00,North,-999,-999.0,-999.0,-999,-99.99,,,-99.99,,2013-02-05 03:22:00,
2013-02-04 21:32:00,62.0,-99.9,30.00,SE,139,13.0,14.0,-999,-99.99,,,-99.99,,2013-02-05 03:32:00,
2013-02-04 21:42:00,62.0,-99.9,30.00,SE,140,12.0,14.0,-999,-99.99,,,-99.99,,2013-02-05 03:42:00,
2013-02-04 21:52:00,61.0,-99.9,30.00,SE,140,12.0,13.0,-999,-99.99,,,-99.99,,2013-02-05 03:52:00,
2013-02-04 22:01:00,62.0,-99.9,30.00,SE,139,12.0,13.0,-999,-99.99,,,-99.99,,2013-02-05 04:01:00,
2013-02-04 22:11:00,62.0,-99.9,29.99,SE,143,13.0,13.0,-999,-99.99,,,-99.99,,2013-02-05 04:11:00,
2013-02-04 22:22:00,62.0,-99.9,29.99,SE,144,13.0,13.0,-999,-99.99,,,-99.99,,2013-02-05 04:22:00,
2013-02-04 22:32:00,62.0,-99.9,29.99,SSE,148,12.0,13.0,-999,-99.99,,,-99.99,,2013-02-05 04:32:00,
2013-02-04 22:42:00,61.0,-99.9,29.98,SSE,150,14.0,16.0,-999,-99.99,,,-99.99,,2013-02-05 04:42:00,
2013-02-04 22:52:00,62.0,-99.9,29.98,SSE,155,14.0,15.0,-999,-99.99,,,-99.99,,2013-02-05 04:52:00,
2013-02-04 23:03:00,62.0,-99.9,29.98,SSE,155,14.0,15.0,-999,-99.99,,,-99.99,,2013-02-05 05:03:00,
2013-02-04 23:12:00,62.0,-99.9,29.98,SSE,157,13.0,14.0,-999,-99.99,,,-99.99,,2013-02-05 05:12:00,
2013-02-04 23:22:00,62.0,-99.9,29.98,SSE,163,12.0,13.0,-999,-99.99,,,-99.99,,2013-02-05 05:22:00,
2013-02-04 23:32:00,62.0,-99.9,29.98,SSE,167,11.0,12.0,-999,-99.99,,,-99.99,,2013-02-05 05:32:00,
2013-02-04 23:42:00,62.0,-99.9,29.98,South,175,11.0,12.0,-999,-99.99,,,-99.99,,2013-02-05 05:42:00,
2013-02-04 23:52:00,62.0,-99.9,29.98,South,174,12.0,12.0,-999,-99.99,,,-99.99,,2013-02-05 05:52:00,